Location: Erdweis
(48.5167°N, 15.3500°E)
Time: 13:02:07
(UTC+00:00)

USA 234 - Pass Details

Date: 17 January 2021
Orbit: 1100 x 1107 km, 123.0° (Epoch: 01 March)

Event Time Altitude Azimuth Distance (km) Brightness Sun altitude
Exits shadow 19:06:24 69° 280° (W) 1,172 3.4 -34.6°
Drops below altitude 10° 19:12:09 10° 304° (NW) 2,967 6.2 -35.5°
Sets 19:14:39 0° 305° (NW) 3,928 7.0 -35.9°
